Find Starlink 11236

NORAD ID: 61062 Int'l Des: 2024-164 Owner: SPXS Country: US Constellation: starlink operational
LEOCIRCULAR

Live Position

Loading 3D Globe...

About Starlink 11236

Description loading...

Upcoming Passes

Passes for default location (London). Set your location on the main map for personalized predictions.

Altitude History

Loading altitude history...

Two-Line Element Set

1 61062U 24164N 26110.36612248 -.00001901 00000-0 -10839-4 0 9992
2 61062 53.1589 105.8897 0000765 91.5371 268.5734 15.69709747 91965
Epoch: Apr 20, 2026 • Age: 14 hours

Current Status

Altitude 359.8 km
Velocity 7.70 km/s
Sub-Earth Point 15.93°N, 73.06°W
Launch Date Sep 13, 2024
Age 1.5 years
Type internet

Technical Details

Classification Payload
Mass 960.00 kg
Dry Mass 910.00 kg
Total Mass 960.00 kg
Length 0.30 m
Diameter 4.10 m
Span 29.00 m
Shape Box + pan
Manufacturer SPXS
Bus Type Starlink V2MD
Phase Status In Orbit
Owner/State SPXS/US

Most Searched